This is the latest recevied weather packets stored in our database for station/object OK2JCZ-6. If no packets are shown the sender has not sent any weather packets the latest 10 day(s).
| Time | Temp. | Humidity | Pressure | Rain* | Wind** | Luminosity | Snow |
|---|---|---|---|---|---|---|---|
| 1777273475 | 15° C | 29% | 1022.8 hPa | 0 mm | - | - | - |
| 1777272575 | 17.78° C | 26% | 1022.7 hPa | 0 mm | - | - | - |
| 1777271975 | 16.11° C | 39% | 1022.8 hPa | 0 mm | - | - | - |
| 1777271075 | 13.89° C | 40% | 1022.9 hPa | 0 mm | - | - | - |
| 1777270775 | 13.89° C | 41% | 1022.9 hPa | 0 mm | - | - | - |
| 1777270475 | 13.33° C | 42% | 1022.9 hPa | 0 mm | - | - | - |
| 1777269875 | 13.33° C | 44% | 1022.8 hPa | 0 mm | - | - | - |
| 1777269275 | 11.67° C | 45% | 1022.8 hPa | 0 mm | - | - | - |
| 1777268977 | 11.67° C | 46% | 1022.8 hPa | 0 mm | - | - | - |
| 1777268675 | 10° C | 48% | 1022.9 hPa | 0 mm | - | - | - |
| 1777268075 | 8.89° C | 50% | 1022.9 hPa | 0 mm | - | - | - |
| 1777267775 | 8.89° C | 51% | 1022.9 hPa | 0 mm | - | - | - |
| 1777267475 | 6.67° C | 52% | 1022.9 hPa | 0 mm | - | - | - |
| 1777267175 | 6.67° C | 53% | 1022.9 hPa | 0 mm | - | - | - |
| 1777266875 | 5° C | 54% | 1023 hPa | 0 mm | - | - | - |
| 1777266575 | 5° C | 54% | 1023 hPa | 0 mm | - | - | - |
| 1777265975 | 5.56° C | 55% | 1023.1 hPa | 0 mm | - | - | - |
| 1777265675 | 3.89° C | 56% | 1023 hPa | 0 mm | - | - | - |
| 1777265375 | 3.89° C | 57% | 1023 hPa | 0 mm | - | - | - |
| 1777264475 | 0.56° C | 59% | 1023 hPa | 0 mm | - | - | - |
| 1777264175 | 0.56° C | 59% | 1022.9 hPa | 0 mm | - | - | - |
| 1777263275 | -1.11° C | 60% | 1022.9 hPa | 0 mm | - | - | - |
| 1777262975 | -1.11° C | 60% | 1022.9 hPa | 0 mm | - | - | - |
| 1777260875 | -1.11° C | 59% | 1023 hPa | 0 mm | - | - | - |
| 1777260575 | -1.11° C | 59% | 1022.9 hPa | 0 mm | - | - | - |
* Rain latest hour (hover to see other rain measurements)
** Current wind speed in m/s (hover to see current wind gust speed)